Tel Aviv, Israel

4:48 PM IDT on August 27, 2016 (GMT +0300)
Ben Gurion

Weather History for LLBG - November, 2012

Change the Weather History Date:

Saturday, November 17, 2012

  Actual Average Record
Temperature  
Mean Temperature 76 °F -  
Max Temperature 83 °F 69 °F 84 °F (1999)
Min Temperature 68 °F 53 °F 51 °F (2003)
Cooling Degree Days 11    
Growing Degree Days 26 (Base 50)    
Moisture  
Dew Point 47 °F    
Average Humidity 38    
Maximum Humidity 69    
Minimum Humidity 16    
Precipitation  
Precipitation 0.01 in - - ()
Sea Level Pressure  
Sea Level Pressure 29.88 in    
Wind  
Wind Speed 11 mph ()    
Max Wind Speed 21 mph    
Max Gust Speed 32 mph    
Visibility 6.1 miles    
Events Rain    
Averages and records for this station are not official NWS values.
T = Trace of Precipitation, MM = Missing Value Source: Averaged Metar Reports

Daily Weather History Graph

Daily Weather History Graph

Search for Another Location

Airport or City:

Trip Planner

Search our weather history database for the weather conditions in past years. The results will help you decide how hot, cold, wet, or windy it might be!

Date:

Astronomy

Nov. 17, 2012 Rise Set
Actual Time 6:11 AM IST 4:39 PM IST
Civil Twilight 5:45 AM IST 5:05 PM IST
Nautical Twilight 5:15 AM IST 5:35 PM IST
Astronomical Twilight 4:46 AM IST 6:04 PM IST
Moon 9:38 AM IST (11/17) 8:25 PM IST (11/17)
Length of Visible Light 11h 20m
Length of Day
10h 28m
Waxing Crescent, 17% of the Moon is Illuminated
Nov 17
Waxing Crescent
Nov 20
First Quarter
Nov 28
Full
Dec 6
Last Quarter
Dec 13
New

Hourly Weather History & Observations

Time (IST) Temp. Dew Point Humidity Pressure Visibility Wind Dir Wind Speed Gust Speed Precip Events Conditions
12:50 AM 75.2 °F 41.0 °F 29% 29.92 in - East 18.4 mph - N/A   Clear
12:55 AM 75.2 °F 41.0 °F 29% 29.92 in - East 20.7 mph 32.2 mph N/A   Clear
1:50 AM 75.2 °F 39.2 °F 27% 29.92 in - East 18.4 mph 29.9 mph N/A   Clear
2:00 AM 74 °F 40 °F 18% 29.91 in 6 mi East 18.4 mph - -   Clear
2:50 AM 73.4 °F 39.2 °F 29% 29.89 in - East 19.6 mph - N/A   Clear
3:50 AM 73.4 °F 41.0 °F 31% 29.89 in - East 17.3 mph - N/A   Clear
4:50 AM 71.6 °F 41.0 °F 33% 29.89 in - East 15.0 mph - N/A   Clear
5:50 AM 73.4 °F 41.0 °F 31% 29.89 in - NNW 3.5 mph - N/A   Clear
6:50 AM 71.6 °F 42.8 °F 35% 29.89 in - ENE 6.9 mph - N/A   Clear
7:50 AM 73.4 °F 44.6 °F 36% 29.89 in - ENE 5.8 mph - N/A   Clear
8:00 AM 73 °F 45 °F 26% 29.91 in 6 mi ENE 5.8 mph - -   Mostly Cloudy
8:50 AM 77.0 °F 44.6 °F 32% 29.92 in - East 9.2 mph - N/A   Clear
9:50 AM 78.8 °F 42.8 °F 28% 29.89 in - East 10.4 mph - N/A   Clear
10:50 AM 80.6 °F 42.8 °F 26% 29.89 in - East 10.4 mph - N/A   Clear
11:50 AM 82.4 °F 44.6 °F 26% 29.86 in - East 9.2 mph - N/A   Clear
12:50 PM 82.4 °F 44.6 °F 26% 29.83 in - East 12.7 mph - N/A   Clear
1:50 PM 82.4 °F 44.6 °F 26% 29.83 in - East 15.0 mph - N/A   Clear
2:00 PM 82 °F 44 °F 16% 29.84 in 6 mi East 15.0 mph - -   Partly Cloudy
2:50 PM 82.4 °F 42.8 °F 25% 29.83 in - East 9.2 mph - N/A   Clear
3:50 PM 82.4 °F 44.6 °F 26% 29.83 in - ESE 4.6 mph - N/A   Clear
4:50 PM 77.0 °F 60.8 °F 57% 29.86 in 6.2 mi SW 4.6 mph - N/A   Mostly Cloudy
5:50 PM 75.2 °F 62.6 °F 65% 29.86 in 6.2 mi West 2.3 mph - N/A Rain Light Rain
6:50 PM 73.4 °F 62.6 °F 69% 29.86 in - ESE 5.8 mph - N/A   Clear
7:50 PM 71.6 °F 57.2 °F 60% 29.89 in - East 2.3 mph - N/A   Clear
8:00 PM 72 °F 58 °F 51% 29.88 in 6 mi East 2.3 mph - -   Partly Cloudy
8:50 PM 69.8 °F 55.4 °F 60% 29.89 in - SSE 2.3 mph - N/A   Clear
9:50 PM 69.8 °F 55.4 °F 60% 29.89 in - SSE 4.6 mph - N/A   Clear
10:50 PM 69.8 °F 53.6 °F 56% 29.89 in - SSE 1.2 mph - N/A   Clear
11:50 PM 68.0 °F 51.8 °F 56% 29.89 in - SSE 1.2 mph - N/A   Clear